Time,TemperatureF,DewpointF,PressureIn,WindDirection,WindDirectionDegrees,WindSpeedMPH,WindSpeedGustMPH,Humidity,HourlyPrecipIn,Conditions,Clouds,dailyrainin,SoftwareType,DateUTC
2013-01-23 00:02:00,22.0,16.0,30.14,NE,54,5.0,8.0,76,0.00,,,0.00,,2013-01-23 07:02:00,
2013-01-23 00:12:00,22.0,16.0,30.14,NE,54,5.0,8.0,76,0.00,,,0.00,,2013-01-23 07:12:00,
2013-01-23 00:22:00,22.0,16.0,30.15,NE,44,4.0,9.0,77,0.00,,,0.00,,2013-01-23 07:22:00,
2013-01-23 00:32:00,21.0,15.0,30.15,NE,56,4.0,7.0,78,0.00,,,0.00,,2013-01-23 07:32:00,
2013-01-23 00:42:00,21.0,15.0,30.15,NE,56,4.0,7.0,78,0.00,,,0.00,,2013-01-23 07:42:00,
2013-01-23 00:53:00,21.0,16.0,30.16,NE,56,4.0,8.0,79,0.00,,,0.00,,2013-01-23 07:53:00,
2013-01-23 01:01:00,20.0,15.0,30.16,ENE,69,5.0,8.0,79,0.00,,,0.00,,2013-01-23 08:01:00,
2013-01-23 01:12:00,20.0,15.0,30.16,ENE,69,5.0,8.0,79,0.00,,,0.00,,2013-01-23 08:12:00,
2013-01-23 01:22:00,20.0,15.0,30.16,ENE,72,4.0,9.0,80,0.00,,,0.00,,2013-01-23 08:22:00,
2013-01-23 01:32:00,20.0,15.0,30.16,ENE,68,5.0,7.0,80,0.00,,,0.00,,2013-01-23 08:32:00,
2013-01-23 01:42:00,20.0,15.0,30.16,ENE,68,5.0,7.0,80,0.00,,,0.00,,2013-01-23 08:42:00,
2013-01-23 01:53:00,20.0,15.0,30.16,ENE,77,5.0,9.0,80,0.00,,,0.00,,2013-01-23 08:53:00,
2013-01-23 02:02:00,20.0,15.0,30.16,ENE,57,6.0,9.0,81,0.00,,,0.00,,2013-01-23 09:02:00,
2013-01-23 02:12:00,20.0,15.0,30.16,ENE,57,6.0,9.0,81,0.00,,,0.00,,2013-01-23 09:12:00,
2013-01-23 02:22:00,20.0,15.0,30.17,NE,37,4.0,7.0,81,0.00,,,0.00,,2013-01-23 09:22:00,
2013-01-23 02:32:00,20.0,15.0,30.19,ENE,63,3.0,5.0,82,0.00,,,0.00,,2013-01-23 09:32:00,
2013-01-23 02:43:00,20.0,15.0,30.19,ENE,63,3.0,5.0,82,0.00,,,0.00,,2013-01-23 09:43:00,
2013-01-23 02:53:00,20.0,15.0,30.19,NE,54,3.0,5.0,82,0.00,,,0.00,,2013-01-23 09:53:00,
2013-01-23 03:02:00,20.0,15.0,30.18,NNE,30,2.0,6.0,81,0.00,,,0.00,,2013-01-23 10:02:00,
2013-01-23 03:12:00,20.0,15.0,30.18,NNE,30,2.0,6.0,81,0.00,,,0.00,,2013-01-23 10:12:00,
2013-01-23 03:22:00,20.0,15.0,30.19,NE,56,3.0,6.0,81,0.00,,,0.00,,2013-01-23 10:22:00,
2013-01-23 03:32:00,20.0,15.0,30.19,NE,51,2.0,5.0,82,0.00,,,0.00,,2013-01-23 10:32:00,
2013-01-23 03:42:00,20.0,15.0,30.19,NE,51,2.0,5.0,82,0.00,,,0.00,,2013-01-23 10:42:00,
2013-01-23 03:53:00,20.0,15.0,30.19,NE,54,1.0,3.0,82,0.00,,,0.00,,2013-01-23 10:53:00,
2013-01-23 04:02:00,19.0,15.0,30.19,NE,41,0.0,3.0,83,0.00,,,0.00,,2013-01-23 11:02:00,
2013-01-23 04:11:00,19.0,15.0,30.19,NE,41,0.0,3.0,83,0.00,,,0.00,,2013-01-23 11:11:00,
2013-01-23 04:22:00,19.0,15.0,30.19,ENE,63,1.0,3.0,83,0.00,,,0.00,,2013-01-23 11:22:00,
2013-01-23 04:32:00,19.0,15.0,30.19,ENE,59,2.0,3.0,83,0.00,,,0.00,,2013-01-23 11:32:00,
2013-01-23 04:42:00,19.0,15.0,30.19,ENE,59,2.0,3.0,83,0.00,,,0.00,,2013-01-23 11:42:00,
2013-01-23 04:53:00,19.0,15.0,30.19,NE,43,3.0,5.0,83,0.00,,,0.00,,2013-01-23 11:53:00,
2013-01-23 05:02:00,19.0,15.0,30.19,NE,49,2.0,4.0,84,0.00,,,0.00,,2013-01-23 12:02:00,
2013-01-23 05:12:00,19.0,15.0,30.19,NE,49,2.0,4.0,84,0.00,,,0.00,,2013-01-23 12:12:00,
2013-01-23 05:22:00,19.0,15.0,30.19,ENE,61,2.0,4.0,84,0.00,,,0.00,,2013-01-23 12:22:00,
2013-01-23 05:32:00,18.0,14.0,30.19,East,91,3.0,5.0,84,0.00,,,0.00,,2013-01-23 12:32:00,
2013-01-23 05:42:00,18.0,14.0,30.19,East,91,3.0,5.0,84,0.00,,,0.00,,2013-01-23 12:42:00,
2013-01-23 05:53:00,18.0,14.0,30.20,ENE,63,0.0,4.0,84,0.00,,,0.00,,2013-01-23 12:53:00,
2013-01-23 06:03:00,18.0,14.0,30.19,ESE,108,2.0,3.0,84,0.00,,,0.00,,2013-01-23 13:03:00,
2013-01-23 06:12:00,18.0,14.0,30.19,ESE,108,2.0,3.0,84,0.00,,,0.00,,2013-01-23 13:12:00,
2013-01-23 06:22:00,18.0,14.0,30.20,ESE,109,2.0,4.0,84,0.00,,,0.00,,2013-01-23 13:22:00,
2013-01-23 06:33:00,18.0,14.0,30.19,ENE,76,1.0,4.0,84,0.00,,,0.00,,2013-01-23 13:33:00,
2013-01-23 06:42:00,18.0,14.0,30.19,ENE,76,1.0,4.0,84,0.00,,,0.00,,2013-01-23 13:42:00,
2013-01-23 06:53:00,18.0,14.0,30.19,ENE,69,3.0,6.0,84,0.00,,,0.00,,2013-01-23 13:53:00,
2013-01-23 07:02:00,18.0,14.0,30.19,ENE,77,2.0,5.0,84,0.00,,,0.00,,2013-01-23 14:02:00,
2013-01-23 07:12:00,18.0,14.0,30.19,ENE,77,2.0,5.0,84,0.00,,,0.00,,2013-01-23 14:12:00,
2013-01-23 07:23:00,17.0,13.0,30.18,ENE,60,3.0,5.0,85,0.00,,,0.00,,2013-01-23 14:23:00,
2013-01-23 07:33:00,17.0,13.0,30.18,ENE,77,2.0,5.0,85,0.00,,,0.00,,2013-01-23 14:33:00,
2013-01-23 07:42:00,17.0,13.0,30.18,ENE,77,2.0,5.0,85,0.00,,,0.00,,2013-01-23 14:42:00,
2013-01-23 07:53:00,17.0,13.0,30.18,ENE,72,2.0,3.0,85,0.00,,,0.00,,2013-01-23 14:53:00,
2013-01-23 08:02:00,17.0,13.0,30.16,ENE,67,2.0,4.0,85,0.00,,,0.00,,2013-01-23 15:02:00,
2013-01-23 08:12:00,17.0,13.0,30.16,ENE,67,2.0,4.0,85,0.00,,,0.00,,2013-01-23 15:12:00,
2013-01-23 08:22:00,17.0,13.0,30.17,NE,53,1.0,6.0,84,0.00,,,0.00,,2013-01-23 15:22:00,
2013-01-23 08:32:00,17.0,13.0,30.17,NE,51,2.0,5.0,85,0.00,,,0.00,,2013-01-23 15:32:00,
2013-01-23 08:43:00,17.0,13.0,30.17,NE,51,2.0,5.0,85,0.00,,,0.00,,2013-01-23 15:43:00,
2013-01-23 08:53:00,17.0,13.0,30.17,ENE,60,2.0,7.0,85,0.00,,,0.00,,2013-01-23 15:53:00,
2013-01-23 09:02:00,17.0,13.0,30.17,NNE,27,1.0,4.0,85,0.00,,,0.00,,2013-01-23 16:02:00,
2013-01-23 09:12:00,17.0,13.0,30.17,NNE,27,1.0,4.0,85,0.00,,,0.00,,2013-01-23 16:12:00,
2013-01-23 09:22:00,17.0,13.0,30.17,NE,47,3.0,5.0,85,0.00,,,0.00,,2013-01-23 16:22:00,
2013-01-23 09:32:00,17.0,13.0,30.16,ENE,67,4.0,6.0,85,0.00,,,0.00,,2013-01-23 16:32:00,
2013-01-23 09:42:00,17.0,13.0,30.16,ENE,67,4.0,6.0,85,0.00,,,0.00,,2013-01-23 16:42:00,
2013-01-23 09:52:00,17.0,13.0,30.16,ENE,67,3.0,5.0,85,0.00,,,0.00,,2013-01-23 16:52:00,
2013-01-23 10:02:00,17.0,13.0,30.15,ENE,66,4.0,6.0,85,0.00,,,0.00,,2013-01-23 17:02:00,
2013-01-23 10:12:00,17.0,13.0,30.15,ENE,66,4.0,6.0,85,0.00,,,0.00,,2013-01-23 17:12:00,
2013-01-23 10:22:00,17.0,13.0,30.16,ENE,57,4.0,6.0,84,0.00,,,0.00,,2013-01-23 17:22:00,
2013-01-23 10:33:00,17.0,13.0,30.16,ENE,72,3.0,5.0,84,0.00,,,0.00,,2013-01-23 17:33:00,
2013-01-23 10:42:00,17.0,13.0,30.16,ENE,72,3.0,5.0,84,0.00,,,0.00,,2013-01-23 17:42:00,
2013-01-23 10:53:00,17.0,13.0,30.15,ENE,59,4.0,7.0,83,0.00,,,0.00,,2013-01-23 17:53:00,
2013-01-23 11:03:00,18.0,14.0,30.15,ENE,76,2.0,5.0,84,0.00,,,0.00,,2013-01-23 18:03:00,
2013-01-23 11:12:00,18.0,14.0,30.15,ENE,76,2.0,5.0,84,0.00,,,0.00,,2013-01-23 18:12:00,
2013-01-23 11:22:00,19.0,15.0,30.15,ENE,76,3.0,5.0,83,0.00,,,0.00,,2013-01-23 18:22:00,
2013-01-23 11:32:00,19.0,15.0,30.15,ENE,76,3.0,5.0,83,0.00,,,0.00,,2013-01-23 18:32:00,
2013-01-23 11:43:00,19.0,15.0,30.14,NE,56,4.0,7.0,83,0.00,,,0.00,,2013-01-23 18:43:00,
2013-01-23 11:53:00,19.0,15.0,30.14,ENE,63,4.0,7.0,83,0.00,,,0.00,,2013-01-23 18:53:00,
2013-01-23 12:02:00,19.0,15.0,30.14,ENE,63,4.0,7.0,83,0.00,,,0.00,,2013-01-23 19:02:00,
2013-01-23 12:12:00,19.0,15.0,30.14,ENE,63,4.0,7.0,83,0.00,,,0.00,,2013-01-23 19:12:00,
2013-01-23 12:22:00,20.0,15.0,30.11,ENE,68,4.0,6.0,81,0.00,,,0.00,,2013-01-23 19:22:00,
2013-01-23 12:32:00,21.0,16.0,30.11,NE,39,4.0,6.0,80,0.00,,,0.00,,2013-01-23 19:32:00,
2013-01-23 12:43:00,21.0,16.0,30.11,NE,39,4.0,6.0,80,0.00,,,0.00,,2013-01-23 19:43:00,
2013-01-23 12:53:00,21.0,16.0,30.10,NE,40,4.0,8.0,79,0.00,,,0.00,,2013-01-23 19:53:00,
2013-01-23 13:02:00,21.0,16.0,30.10,East,86,3.0,7.0,79,0.00,,,0.00,,2013-01-23 20:02:00,
2013-01-23 13:12:00,21.0,16.0,30.10,East,86,3.0,7.0,79,0.00,,,0.00,,2013-01-23 20:12:00,
2013-01-23 13:22:00,22.0,16.0,30.09,East,85,3.0,7.0,78,0.00,,,0.00,,2013-01-23 20:22:00,
2013-01-23 13:32:00,22.0,16.0,30.09,ENE,62,4.0,7.0,77,0.00,,,0.00,,2013-01-23 20:32:00,
2013-01-23 13:42:00,22.0,16.0,30.09,ENE,62,4.0,7.0,77,0.00,,,0.00,,2013-01-23 20:42:00,
2013-01-23 13:53:00,22.0,16.0,30.08,ENE,69,4.0,7.0,76,0.00,,,0.00,,2013-01-23 20:53:00,
2013-01-23 14:02:00,22.0,16.0,30.08,ENE,65,4.0,6.0,76,0.00,,,0.00,,2013-01-23 21:02:00,
2013-01-23 14:12:00,22.0,16.0,30.08,ENE,65,4.0,6.0,76,0.00,,,0.00,,2013-01-23 21:12:00,
2013-01-23 14:22:00,22.0,16.0,30.07,NE,56,3.0,7.0,76,0.00,,,0.00,,2013-01-23 21:22:00,
2013-01-23 14:32:00,22.0,15.0,30.07,NE,56,4.0,6.0,75,0.00,,,0.00,,2013-01-23 21:32:00,
2013-01-23 14:42:00,22.0,15.0,30.07,NE,56,4.0,6.0,75,0.00,,,0.00,,2013-01-23 21:42:00,
2013-01-23 14:53:00,22.0,16.0,30.05,ENE,62,3.0,7.0,76,0.00,,,0.00,,2013-01-23 21:53:00,
2013-01-23 15:02:00,22.0,16.0,30.05,East,83,2.0,7.0,76,0.00,,,0.00,,2013-01-23 22:02:00,
2013-01-23 15:12:00,22.0,16.0,30.05,East,83,2.0,7.0,76,0.00,,,0.00,,2013-01-23 22:12:00,
2013-01-23 15:22:00,22.0,15.0,30.05,NE,51,4.0,7.0,75,0.00,,,0.00,,2013-01-23 22:22:00,
2013-01-23 15:33:00,22.0,15.0,30.05,NE,41,2.0,5.0,75,0.00,,,0.00,,2013-01-23 22:33:00,
2013-01-23 15:42:00,22.0,15.0,30.05,NE,41,2.0,5.0,75,0.00,,,0.00,,2013-01-23 22:42:00,
2013-01-23 15:53:00,22.0,15.0,30.05,NE,48,3.0,7.0,75,0.00,,,0.00,,2013-01-23 22:53:00,
2013-01-23 16:02:00,22.0,15.0,30.05,ENE,64,3.0,5.0,74,0.00,,,0.00,,2013-01-23 23:02:00,
2013-01-23 16:12:00,22.0,15.0,30.05,ENE,64,3.0,5.0,74,0.00,,,0.00,,2013-01-23 23:12:00,
2013-01-23 16:22:00,23.0,16.0,30.05,ENE,71,1.0,4.0,74,0.00,,,0.00,,2013-01-23 23:22:00,
2013-01-23 16:33:00,23.0,16.0,30.06,NNE,19,3.0,4.0,74,0.00,,,0.00,,2013-01-23 23:33:00,
2013-01-23 16:42:00,23.0,16.0,30.06,NNE,19,3.0,4.0,74,0.00,,,0.00,,2013-01-23 23:42:00,
2013-01-23 16:53:00,23.0,16.0,30.04,ENE,73,2.0,4.0,74,0.00,,,0.00,,2013-01-23 23:53:00,
2013-01-23 17:02:00,23.0,16.0,30.04,ENE,67,2.0,4.0,74,0.00,,,0.00,,2013-01-24 00:02:00,
2013-01-23 17:12:00,23.0,16.0,30.04,ENE,67,2.0,4.0,74,0.00,,,0.00,,2013-01-24 00:12:00,
2013-01-23 17:22:00,23.0,16.0,30.04,ESE,113,3.0,5.0,74,0.00,,,0.00,,2013-01-24 00:22:00,
2013-01-23 17:32:00,23.0,16.0,30.03,East,95,3.0,5.0,74,0.00,,,0.00,,2013-01-24 00:32:00,
2013-01-23 17:42:00,23.0,16.0,30.03,East,95,3.0,5.0,74,0.00,,,0.00,,2013-01-24 00:42:00,
2013-01-23 17:53:00,23.0,16.0,30.03,East,84,1.0,4.0,74,0.00,,,0.00,,2013-01-24 00:53:00,
2013-01-23 18:02:00,23.0,16.0,30.02,ENE,75,2.0,3.0,75,0.00,,,0.00,,2013-01-24 01:02:00,
2013-01-23 18:12:00,23.0,16.0,30.02,ENE,75,2.0,3.0,75,0.00,,,0.00,,2013-01-24 01:12:00,
2013-01-23 18:22:00,22.0,15.0,30.02,NE,46,2.0,5.0,75,0.00,,,0.00,,2013-01-24 01:22:00,
2013-01-23 18:32:00,22.0,15.0,30.01,NE,51,2.0,4.0,75,0.00,,,0.00,,2013-01-24 01:32:00,
2013-01-23 18:42:00,22.0,15.0,30.01,NE,51,2.0,4.0,75,0.00,,,0.00,,2013-01-24 01:42:00,
2013-01-23 18:52:00,22.0,16.0,30.01,ENE,61,1.0,3.0,76,0.00,,,0.00,,2013-01-24 01:52:00,
2013-01-23 19:02:00,22.0,16.0,30.01,NE,39,1.0,2.0,77,0.00,,,0.00,,2013-01-24 02:02:00,
2013-01-23 19:11:00,22.0,16.0,30.01,NE,39,1.0,2.0,77,0.00,,,0.00,,2013-01-24 02:11:00,
2013-01-23 19:22:00,21.0,15.0,29.99,NNE,13,1.0,3.0,77,0.00,,,0.00,,2013-01-24 02:22:00,
2013-01-23 19:32:00,21.0,15.0,29.99,NE,42,2.0,3.0,77,0.00,,,0.00,,2013-01-24 02:32:00,
2013-01-23 19:42:00,21.0,15.0,29.99,NE,42,2.0,3.0,77,0.00,,,0.00,,2013-01-24 02:42:00,
2013-01-23 19:52:00,21.0,15.0,29.99,NE,42,2.0,3.0,77,0.00,,,0.00,,2013-01-24 02:52:00,
2013-01-23 20:02:00,21.0,15.0,29.97,East,82,1.0,2.0,78,0.00,,,0.00,,2013-01-24 03:02:00,
2013-01-23 20:11:00,21.0,15.0,29.97,East,82,1.0,2.0,78,0.00,,,0.00,,2013-01-24 03:11:00,
2013-01-23 20:22:00,21.0,15.0,29.97,NNE,23,2.0,3.0,78,0.00,,,0.00,,2013-01-24 03:22:00,
2013-01-23 20:32:00,21.0,15.0,29.97,NNE,23,2.0,3.0,78,0.00,,,0.00,,2013-01-24 03:32:00,
2013-01-23 20:42:00,21.0,15.0,29.97,NNE,23,2.0,3.0,78,0.00,,,0.00,,2013-01-24 03:42:00,
2013-01-23 20:52:00,21.0,16.0,29.96,ENE,59,0.0,3.0,79,0.00,,,0.00,,2013-01-24 03:52:00,
2013-01-23 21:02:00,21.0,16.0,29.96,ENE,69,0.0,2.0,79,0.00,,,0.00,,2013-01-24 04:02:00,
2013-01-23 21:12:00,21.0,16.0,29.96,ENE,69,0.0,2.0,79,0.00,,,0.00,,2013-01-24 04:12:00,
2013-01-23 21:22:00,20.0,15.0,29.96,ENE,74,1.0,2.0,79,0.00,,,0.00,,2013-01-24 04:22:00,
2013-01-23 21:32:00,20.0,15.0,29.95,SSE,150,1.0,2.0,80,0.00,,,0.00,,2013-01-24 04:32:00,
2013-01-23 21:42:00,20.0,15.0,29.95,SSE,150,1.0,2.0,80,0.00,,,0.00,,2013-01-24 04:42:00,
2013-01-23 21:52:00,20.0,15.0,29.96,East,79,0.0,1.0,81,0.00,,,0.00,,2013-01-24 04:52:00,
2013-01-23 22:03:00,20.0,15.0,29.95,North,359,1.0,1.0,81,0.00,,,0.00,,2013-01-24 05:03:00,
2013-01-23 22:12:00,20.0,15.0,29.95,North,359,1.0,1.0,81,0.00,,,0.00,,2013-01-24 05:12:00,
2013-01-23 22:22:00,20.0,15.0,29.95,North,359,0.0,1.0,82,0.00,,,0.00,,2013-01-24 05:22:00,
2013-01-23 22:32:00,19.0,14.0,29.95,North,350,0.0,1.0,82,0.00,,,0.00,,2013-01-24 05:32:00,
2013-01-23 22:42:00,19.0,14.0,29.95,North,350,0.0,1.0,82,0.00,,,0.00,,2013-01-24 05:42:00,
2013-01-23 22:53:00,20.0,15.0,29.94,North,355,1.0,1.0,82,0.00,,,0.00,,2013-01-24 05:53:00,
2013-01-23 23:02:00,20.0,15.0,29.95,ENE,59,1.0,2.0,82,0.00,,,0.00,,2013-01-24 06:02:00,
2013-01-23 23:12:00,20.0,15.0,29.95,ENE,59,1.0,2.0,82,0.00,,,0.00,,2013-01-24 06:12:00,
2013-01-23 23:22:00,20.0,15.0,29.93,NNW,333,1.0,3.0,82,0.00,,,0.00,,2013-01-24 06:22:00,
2013-01-23 23:32:00,20.0,15.0,29.93,East,96,2.0,6.0,82,0.00,,,0.00,,2013-01-24 06:32:00,
2013-01-23 23:42:00,20.0,15.0,29.93,East,96,2.0,6.0,82,0.00,,,0.00,,2013-01-24 06:42:00,
2013-01-23 23:52:00,20.0,16.0,29.93,NNE,33,0.0,3.0,83,0.00,,,0.00,,2013-01-24 06:52:00,